Franktown, CO

11:57 PM MDT on September 30, 2016 (GMT -0600)
Monument Pass

Weather History for KMNH - April, 2013

Change the Weather History Date:

Saturday, April 20, 2013

  Actual Average Record
Temperature  
Mean Temperature 39 °F -  
Max Temperature 50 °F - 64 °F (2008)
Min Temperature 28 °F - 21 °F (2006)
Degree Days  
Heating Degree Days 26    
Month to date heating degree days  
Cooling Degree Days 0    
Month to date cooling degree days  
Moisture  
Dew Point 24 °F    
Average Humidity 56    
Maximum Humidity 93    
Minimum Humidity 32    
Precipitation  
Precipitation 0.00 in - 0.10 in (2005)
Sea Level Pressure  
Sea Level Pressure 29.96 in    
Wind  
Wind Speed 7 mph (West)    
Max Wind Speed 12 mph    
Max Gust Speed 21 mph    
Visibility 10 miles    
Events      
T = Trace of Precipitation, MM = Missing Value Source: NWS Daily Summary

Daily Weather History Graph

Daily Weather History Graph

Search for Another Location

Airport or City:

Trip Planner

Search our weather history database for the weather conditions in past years. The results will help you decide how hot, cold, wet, or windy it might be!

Date:

Astronomy

Apr. 20, 2013 Rise Set
Actual Time 6:14 AM MDT 7:41 PM MDT
Civil Twilight 5:46 AM MDT 8:09 PM MDT
Nautical Twilight 5:12 AM MDT 8:43 PM MDT
Astronomical Twilight 4:36 AM MDT 9:18 PM MDT
Moon 2:29 PM MDT (4/20) 3:02 AM MDT (4/20)
Length of Visible Light 14h 23m
Length of Day
13h 27m
Waxing Gibbous, 71% of the Moon is Illuminated
Apr 20
Waxing Gibbous
Apr 25
Full
May 2
Last Quarter
May 9
New
May 17
First Quarter

Hourly Weather History & Observations

Time (MDT) Temp. Windchill Dew Point Humidity Pressure Visibility Wind Dir Wind Speed Gust Speed Precip Events Conditions
12:34 AM 32.0 °F 24.8 °F 23.0 °F 69% 29.99 in 10.0 mi South 8.1 mph - N/A   Clear
12:54 AM 32.0 °F 25.6 °F 24.8 °F 75% 29.99 in 10.0 mi SSW 6.9 mph - N/A   Clear
1:14 AM 32.0 °F 26.4 °F 23.0 °F 69% 29.97 in 10.0 mi SSW 5.8 mph - N/A   Clear
1:33 AM 32.0 °F 24.8 °F 23.0 °F 69% 29.97 in 10.0 mi SSW 8.1 mph - N/A   Clear
1:54 AM 32.0 °F 25.6 °F 21.2 °F 64% 29.95 in 10.0 mi SSW 6.9 mph - N/A   Clear
2:13 AM 32.0 °F 24.8 °F 21.2 °F 64% 29.95 in 10.0 mi SSW 8.1 mph - N/A   Clear
2:34 AM 32.0 °F 23.6 °F 21.2 °F 64% 29.93 in 10.0 mi SSW 10.4 mph - N/A   Clear
2:54 AM 32.0 °F 24.2 °F 21.2 °F 64% 29.93 in 10.0 mi SSW 9.2 mph - N/A   Clear
3:14 AM 30.2 °F 23.4 °F 21.2 °F 69% 29.93 in 10.0 mi SSW 6.9 mph - N/A   Clear
3:34 AM 32.0 °F 25.6 °F 21.2 °F 64% 29.92 in 10.0 mi SSW 6.9 mph - N/A   Clear
3:54 AM 32.0 °F 24.8 °F 19.4 °F 60% 29.91 in 10.0 mi SSW 8.1 mph - N/A   Clear
4:13 AM 32.0 °F 25.6 °F 19.4 °F 60% 29.91 in 10.0 mi SW 6.9 mph - N/A   Clear
4:34 AM 32.0 °F 24.2 °F 17.6 °F 55% 29.91 in 10.0 mi SW 9.2 mph - N/A   Clear
4:54 AM 32.0 °F 23.6 °F 19.4 °F 60% 29.91 in 10.0 mi SW 10.4 mph - N/A   Clear
5:14 AM 30.2 °F 22.6 °F 21.2 °F 69% 29.91 in 10.0 mi WSW 8.1 mph - N/A   Clear
5:34 AM 28.4 °F 20.4 °F 21.2 °F 74% 29.91 in 10.0 mi WSW 8.1 mph - N/A   Clear
5:54 AM 28.4 °F 21.2 °F 21.2 °F 74% 29.91 in 10.0 mi WSW 6.9 mph - N/A   Clear
6:14 AM 30.2 °F 23.4 °F 21.2 °F 69% 29.91 in 10.0 mi West 6.9 mph - N/A   Clear
6:34 AM 32.0 °F 24.8 °F 21.2 °F 64% 29.92 in 10.0 mi West 8.1 mph - N/A   Clear
6:54 AM 32.0 °F 24.8 °F 23.0 °F 69% 29.92 in 10.0 mi WSW 8.1 mph - N/A   Clear
7:14 AM 33.8 °F 27.7 °F 21.2 °F 60% 29.92 in 10.0 mi West 6.9 mph - N/A   Clear
7:34 AM 35.6 °F 30.7 °F 21.2 °F 56% 29.93 in 10.0 mi West 5.8 mph - N/A   Clear
7:54 AM 37.4 °F 32.8 °F 21.2 °F 52% 29.93 in 10.0 mi WNW 5.8 mph - N/A   Clear
8:14 AM 37.4 °F 31.4 °F 23.0 °F 56% 29.93 in 10.0 mi West 8.1 mph - N/A   Clear
8:34 AM 41.0 °F 36.4 °F 23.0 °F 49% 29.93 in 10.0 mi NW 6.9 mph - N/A   Clear
8:53 AM 42.8 °F 37.5 °F 21.2 °F 42% 29.94 in 10.0 mi NW 9.2 mph - N/A   Clear
9:14 AM 44.6 °F 40.2 °F 21.2 °F 39% 29.94 in 10.0 mi NW 8.1 mph - N/A   Clear
9:34 AM 44.6 °F 39.2 °F 21.2 °F 39% 29.94 in 10.0 mi NNW 10.4 mph - N/A   Clear
9:54 AM 44.6 °F 39.2 °F 21.2 °F 39% 29.94 in 10.0 mi NNW 10.4 mph - N/A   Clear
10:13 AM 46.4 °F 41.1 °F 23.0 °F 40% 29.95 in 10.0 mi NNW 11.5 mph 16.1 mph N/A   Clear
10:34 AM 46.4 °F 41.5 °F 23.0 °F 40% 29.95 in 10.0 mi NNW 10.4 mph - N/A   Clear
10:54 AM 50.0 °F - 23.0 °F 35% 29.94 in 10.0 mi North 10.4 mph 20.7 mph N/A   Clear
11:14 AM 46.4 °F 41.1 °F 21.2 °F 37% 29.95 in 10.0 mi NW 11.5 mph 19.6 mph N/A   Clear
11:34 AM 46.4 °F 41.5 °F 23.0 °F 40% 29.95 in 10.0 mi North 10.4 mph - N/A   Clear
11:54 AM 48.2 °F - 21.2 °F 34% 29.95 in 10.0 mi North 8.1 mph - N/A   Clear
12:14 PM 48.2 °F - 21.2 °F 34% 29.94 in 10.0 mi North 6.9 mph - N/A   Clear
12:34 PM 46.4 °F 44.3 °F 21.2 °F 37% 29.94 in 10.0 mi NE 4.6 mph - N/A   Clear
12:54 PM 48.2 °F - 23.0 °F 37% 29.94 in 10.0 mi North 10.4 mph - N/A   Scattered Clouds
1:14 PM 50.0 °F - 23.0 °F 35% 29.94 in 10.0 mi NE 8.1 mph - N/A   Scattered Clouds
1:34 PM 50.0 °F - 23.0 °F 35% 29.94 in 10.0 mi North 9.2 mph - N/A   Clear
1:54 PM 48.2 °F - 21.2 °F 34% 29.94 in 10.0 mi North 3.5 mph - N/A   Clear
2:14 PM 48.2 °F - 21.2 °F 34% 29.94 in 10.0 mi ENE 6.9 mph - N/A   Clear
2:33 PM 46.4 °F 41.9 °F 21.2 °F 37% 29.94 in 10.0 mi NE 9.2 mph - N/A   Clear
2:53 PM 50.0 °F - 21.2 °F 32% 29.94 in 10.0 mi ENE 6.9 mph - N/A   Clear
3:14 PM 50.0 °F - 23.0 °F 35% 29.94 in 10.0 mi ENE 5.8 mph - N/A   Clear
3:34 PM 48.2 °F - 21.2 °F 34% 29.94 in 10.0 mi ENE 4.6 mph - N/A   Clear
3:54 PM 46.4 °F 45.2 °F 21.2 °F 37% 29.94 in 10.0 mi NNE 3.5 mph - N/A   Scattered Clouds
4:14 PM 46.4 °F 43.5 °F 21.2 °F 37% 29.94 in 10.0 mi NNE 5.8 mph - N/A   Scattered Clouds
4:34 PM 46.4 °F - 21.2 °F 37% 29.95 in 10.0 mi Calm Calm - N/A   Scattered Clouds
4:54 PM 46.4 °F - 23.0 °F 40% 29.95 in 10.0 mi Calm Calm - N/A   Clear
5:14 PM 44.6 °F 39.7 °F 28.4 °F 53% 29.95 in 10.0 mi West 9.2 mph 16.1 mph N/A   Mostly Cloudy
5:33 PM 44.6 °F 40.2 °F 28.4 °F 53% 29.96 in 10.0 mi WSW 8.1 mph - N/A   Scattered Clouds
5:54 PM 44.6 °F - 26.6 °F 49% 29.97 in 10.0 mi Calm Calm - N/A   Clear
6:14 PM 44.6 °F 43.1 °F 26.6 °F 49% 29.97 in 10.0 mi NW 3.5 mph - N/A   Clear
6:34 PM 42.8 °F 40.1 °F 28.4 °F 57% 29.97 in 10.0 mi NW 4.6 mph - N/A   Scattered Clouds
6:54 PM 42.8 °F 38.6 °F 28.4 °F 57% 29.99 in 10.0 mi SW 6.9 mph - N/A   Light Drizzle
7:14 PM 41.0 °F 38.0 °F 28.4 °F 61% 30.00 in 10.0 mi WNW 4.6 mph - N/A   Light Drizzle
7:34 PM 41.0 °F - 28.4 °F 61% 30.00 in 10.0 mi Calm Calm - N/A   Scattered Clouds
7:54 PM 41.0 °F - 30.2 °F 65% 30.02 in 10.0 mi Calm Calm - N/A   Scattered Clouds
8:14 PM 41.0 °F - 28.4 °F 61% 30.02 in 10.0 mi Calm Calm - N/A   Mostly Cloudy
8:34 PM 41.0 °F - 30.2 °F 65% 30.03 in 10.0 mi Calm Calm - N/A   Scattered Clouds
8:54 PM 39.2 °F 37.0 °F 30.2 °F 70% 30.03 in 10.0 mi SE 3.5 mph - N/A   Scattered Clouds
9:14 PM 37.4 °F 32.8 °F 30.2 °F 75% 30.04 in 10.0 mi SSW 5.8 mph - N/A   Scattered Clouds
9:34 PM 35.6 °F 28.0 °F 32.0 °F 87% 30.05 in 10.0 mi SSW 10.4 mph - N/A   Scattered Clouds
9:54 PM 35.6 °F 28.6 °F 32.0 °F 87% 30.05 in 10.0 mi SSW 9.2 mph 17.3 mph N/A   Scattered Clouds
10:14 PM 35.6 °F 28.6 °F 32.0 °F 87% 30.05 in 10.0 mi SSW 9.2 mph - N/A   Scattered Clouds
10:34 PM 35.6 °F 28.6 °F 32.0 °F 87% 30.05 in 10.0 mi SSW 9.2 mph - N/A   Scattered Clouds
10:54 PM 35.6 °F 30.7 °F 32.0 °F 87% 30.05 in 10.0 mi SSW 5.8 mph - N/A   Clear
11:14 PM 33.8 °F 27.0 °F 32.0 °F 93% 30.05 in 10.0 mi SW 8.1 mph - N/A   Clear
11:34 PM 33.8 °F 29.6 °F 32.0 °F 93% 30.05 in 10.0 mi SSW 4.6 mph - N/A   Scattered Clouds
11:54 PM 33.8 °F 29.6 °F 32.0 °F 93% 30.05 in 10.0 mi SSW 4.6 mph - N/A   Scattered Clouds